Vertical_Velocity
-3 7 -2 -5 5 -3 2 -1 -2 -4 5 0 0 3 2 -0 7 -1 0 -4 -3 4 -2 2 3 1 5
19 4 -0 -0 1 -4 -9 2 7 -7 4 6 1 -0 5 -2 3 -1 3 5 -3 4 2 -6 -3 -3 -2
-16 6 -4 -1 -1 -2 3 1 4 8 -3 12 0 0 6 -6 0 -0 -3 2 -8 4 1 -4 -2 -4 -0
-11 -7 3 9 0 3 4 1 0 4 13 1 5 11 -1 -1 1 6 -1 -13 21 -1 4 -3 2 -3 -3
-3 -8 -0 -5 -4 6 -7 20 -4 3 28 5 15 7 5 1 1 -1 4 -4 14 4 1 -2 -4 -0 -2
-5 0 1 -5 4 -3 3 6 12 11 7 -1 1 7 -3 3 -3 12 23 4 4 4 -5 -0 -3 -0 -1
-5 12 -19 -1 13 3 7 0 16 22 6 14 9 -1 2 4 -2 -2 -1 7 14 2 -3 -3 -1 -1 -1
-4 -3 -0 -1 -5 2 10 23 12 18 9 -1 -7 0 3 -2 -0 0 5 3 4 -1 -1 -2 -1 -0 1
-8 0 1 -2 -3 13 20 11 5 4 1 -2 1 1 2 3 -2 2 3 2 2 2 -0 -1 -0 -0 1
-5 -5 1 2 5 9 7 5 -0 -1 -4 1 3 -2 -0 -3 -0 4 -3 3 2 2 1 -0 -1 0 1
-5 -6 2 2 1 3 1 4 -2 2 3 -1 1 3 -4 -1 6 1 -4 3 1 3 1 0 -2 1 1
-5 1 1 1 -1 -5 -3 -4 1 -1 1 1 -1 1 4 1 2 2 0 3 2 2 0 0 0 0 -1
-2 3 -0 -0 -1 0 2 3 1 -1 0 2 3 2 1 -0 4 3 5 4 3 2 1 0 1 1 -2
2 2 0 2 1 2 1 0 0 0 -1 -1 2 1 1 1 7 3 0 1 2 2 2 1 1 0 -2
3 3 -1 1 3 1 -1 1 1 -0 0 1 1 1 -0 3 2 0 -1 -0 1 1 1 1 1 -1 -2
2 2 2 2 1 -1 -2 -1 -1 -2 -0 2 1 2 -0 1 3 2 -0 1 2 1 1 1 0 -2 -1
1 1 2 -1 -1 0 -1 -1 -1 -0 1 1 1 1 3 5 3 1 0 1 1 1 1 1 -1 -0 -1
Height
3040 3037 3034 3031 3030 3028 3027 3025 3025 3024 3023 3021 3020 3020 3020 3021 3021 3021 3022 3023 3024 3024 3024 3025 3023 3023 3022
3027 3022 3020 3017 3015 3014 3015 3012 3011 3010 3010 3009 3008 3008 3008 3010 3012 3012 3015 3015 3018 3018 3016 3019 3019 3018 3018
3011 3010 3006 3005 3001 3000 3000 3000 2999 2999 2999 2997 2997 2997 2997 3000 3003 3004 3008 3010 3012 3011 3013 3013 3014 3013 3014
2999 2996 2992 2990 2987 2986 2986 2985 2988 2987 2987 2988 2987 2987 2988 2991 2995 2996 2999 3002 3003 3007 3006 3008 3008 3008 3008
2985 2980 2979 2976 2973 2975 2973 2973 2974 2976 2977 2978 2978 2979 2981 2984 2987 2990 2992 2995 2998 2999 3000 3002 3002 3003 3002
2972 2967 2967 2967 2965 2966 2964 2961 2961 2965 2969 2970 2972 2974 2977 2979 2981 2984 2987 2990 2992 2994 2995 2996 2997 2998 2996
2959 2957 2954 2958 2959 2956 2955 2953 2954 2958 2961 2964 2967 2968 2971 2972 2974 2978 2981 2985 2987 2988 2990 2992 2993 2992 2991
2953 2951 2950 2949 2950 2948 2949 2950 2950 2952 2956 2958 2962 2964 2966 2967 2970 2974 2977 2981 2983 2985 2987 2988 2988 2987 2986
2949 2948 2945 2944 2943 2943 2944 2946 2948 2951 2952 2955 2957 2960 2962 2964 2968 2971 2975 2978 2980 2982 2984 2984 2984 2983 2983
2946 2943 2941 2941 2941 2942 2943 2944 2946 2948 2950 2952 2954 2957 2959 2962 2965 2968 2972 2975 2977 2979 2980 2981 2980 2980 2979
2942 2941 2940 2939 2940 2940 2940 2941 2944 2945 2947 2949 2950 2952 2955 2959 2962 2965 2969 2972 2974 2976 2977 2977 2977 2976 2977
2941 2938 2937 2936 2937 2938 2939 2939 2941 2941 2942 2945 2947 2949 2952 2956 2959 2962 2965 2968 2971 2973 2974 2974 2974 2974 2974
2938 2936 2935 2934 2933 2934 2934 2935 2936 2937 2938 2941 2943 2945 2948 2952 2956 2959 2962 2965 2968 2969 2970 2971 2971 2972 2972
2934 2933 2932 2931 2931 2931 2932 2932 2933 2934 2936 2937 2939 2941 2945 2949 2953 2955 2958 2961 2964 2966 2967 2968 2969 2969 2970
2929 2929 2929 2928 2928 2928 2929 2929 2930 2931 2932 2934 2936 2939 2942 2945 2948 2951 2954 2957 2961 2962 2964 2965 2966 2967 2968
2925 2926 2925 2925 2925 2925 2926 2927 2927 2928 2929 2931 2933 2936 2938 2941 2944 2947 2951 2955 2958 2960 2961 2962 2964 2965 2966
2922 2922 2922 2923 2923 2923 2924 2924 2924 2925 2926 2928 2930 2932 2935 2938 2942 2945 2949 2952 2955 2956 2958 2960 2961 2963 2964